Date,TemperatureHighF,TemperatureAvgF,TemperatureLowF,DewpointHighF,DewpointAvgF,DewpointLowF,HumidityHigh,HumidityAvg,HumidityLow,PressureMaxIn,PressureMinIn,WindSpeedMaxMPH,WindSpeedAvgMPH,GustSpeedMaxMPH,PrecipitationSumIn
2013-1-11,41,41,40,39,38,37,92,91,90,30.06,30.04,0,0,0,0.00
2013-1-12,41,40,40,39,38,38,93,92,92,30.07,30.04,0,0,0,0.00
2013-1-30,57,56,55,55,54,53,93,93,93,29.47,29.16,1,0,3,0.00
2013-1-31,55,38,28,53,24,9,93,58,42,29.85,29.11,11,5,25,0.00
2013-2-1,29,23,16,22,8,1,85,54,39,30.35,29.77,11,4,19,0.00
2013-2-2,28,21,12,21,10,2,78,63,48,30.35,29.96,3,0,6,0.00
2013-2-3,35,28,23,27,21,12,87,76,54,29.96,29.76,7,1,12,0.00
2013-2-4,37,30,23,24,14,9,72,53,39,30.04,29.82,5,1,13,0.00
2013-2-5,39,33,31,32,28,22,87,79,70,29.88,29.79,1,0,4,0.00
2013-2-6,40,35,27,31,25,18,88,69,54,30.30,29.87,4,1,10,0.00
2013-2-7,41,32,24,26,22,18,79,65,49,30.38,30.15,2,0,6,0.00
2013-2-8,40,35,32,35,28,20,87,75,57,30.15,29.73,9,2,16,0.00
2013-2-9,41,32,22,20,16,11,71,52,30,30.35,29.92,11,4,18,0.00
2013-2-10,48,32,16,20,15,11,82,54,27,30.42,30.13,2,0,7,0.00
2013-2-11,64,48,35,48,36,20,90,67,20,30.13,29.61,7,1,12,0.00
2013-2-12,56,47,36,29,25,19,64,43,27,29.93,29.78,6,2,14,0.00
2013-2-13,44,36,29,32,27,23,91,72,53,29.88,29.62,2,0,5,0.00
2013-2-14,51,38,30,32,27,24,91,66,40,29.96,29.72,4,0,10,0.00
2013-2-15,55,39,30,36,30,23,91,71,41,29.98,29.86,7,0,9,0.00
2013-2-16,38,33,28,32,23,13,92,69,46,29.94,29.82,4,1,11,0.00
2013-2-17,30,25,22,15,10,4,67,52,38,30.18,29.82,9,4,19,0.00
2013-2-18,46,30,16,19,9,4,63,42,23,30.33,30.05,6,1,8,0.00
2013-2-19,52,40,31,40,26,18,78,59,43,30.05,29.61,8,1,16,0.00
2013-2-20,35,29,23,19,12,7,54,47,40,30.13,29.81,9,4,16,0.00
2013-2-21,37,28,22,15,12,8,65,51,39,30.29,30.09,7,2,12,0.00
2013-2-22,32,29,25,26,21,14,82,73,58,30.33,30.13,2,0,7,0.00
2013-2-23,48,38,32,39,32,27,89,82,69,30.13,29.77,1,0,5,0.00
2013-2-24,48,38,29,36,27,15,91,66,39,30.08,29.75,8,2,12,0.00
2013-2-25,49,34,22,23,19,16,78,57,32,30.17,30.08,1,0,6,0.00
2013-2-26,40,35,26,38,29,19,92,79,62,30.14,29.59,6,1,11,0.00
2013-2-27,54,43,36,40,34,31,93,73,44,29.64,29.51,7,1,18,0.00
2013-2-28,43,39,34,34,27,24,78,62,48,29.68,29.58,7,2,11,0.00
2013-3-1,42,38,32,28,25,20,67,61,50,29.86,29.68,6,3,12,0.00
2013-3-2,35,31,29,24,20,17,73,63,53,29.86,29.78,6,2,10,0.00
2013-3-3,40,32,27,19,16,14,66,53,38,29.89,29.76,8,4,16,0.00
2013-3-4,42,32,26,18,14,11,63,48,30,29.99,29.89,8,3,16,0.00
2013-3-5,52,38,25,29,18,13,83,48,23,30.02,29.75,4,1,10,0.00
2013-3-6,38,35,32,33,30,29,91,84,70,29.97,29.62,8,2,15,0.00
2013-3-7,46,40,36,29,27,23,74,61,45,30.13,29.97,8,3,14,0.00
2013-3-8,48,40,33,28,25,21,70,56,43,30.26,30.11,10,4,16,0.00
2013-3-9,63,41,26,27,23,19,82,54,19,30.33,30.20,2,0,6,0.00
2013-3-10,68,46,27,31,24,20,82,49,21,30.25,30.12,2,0,10,0.00
2013-3-11,60,51,43,47,36,21,78,59,30,30.12,29.79,3,1,12,0.00
2013-3-12,58,53,45,51,44,29,91,73,53,29.84,29.68,8,2,17,0.00
2013-3-14,43,36,30,18,15,11,52,42,31,30.10,30.00,9,4,22,0.00
2013-3-15,58,43,28,33,24,17,67,47,29,30.04,29.71,6,1,12,0.00
2013-3-16,54,43,36,37,33,30,82,68,51,29.87,29.57,3,1,8,0.00
2013-3-17,40,37,35,31,26,20,82,66,48,30.20,29.86,4,1,10,0.00
2013-3-18,36,33,30,30,27,21,91,78,53,30.25,29.84,2,0,6,0.00
2013-3-19,58,41,32,41,26,5,93,63,18,29.86,29.66,9,2,26,0.00
2013-3-20,51,40,32,27,15,9,73,36,21,29.93,29.70,8,4,19,0.00
2013-3-21,35,30,25,27,12,6,72,48,33,29.85,29.74,7,2,17,0.00
2013-3-22,45,34,26,19,15,10,55,45,31,29.94,29.82,7,3,20,0.00
2013-3-23,53,38,23,25,20,16,76,51,27,29.97,29.86,5,1,10,0.00
2013-3-24,42,34,26,30,22,19,90,65,43,29.95,29.58,3,0,7,0.00
2013-3-25,42,35,32,34,31,29,91,86,72,29.65,29.47,1,0,3,0.00
2013-3-26,49,38,30,34,29,24,92,70,40,29.96,29.65,6,2,12,0.00
2013-3-27,48,40,31,30,26,22,77,58,37,30.06,29.96,8,2,17,0.00
2013-4-10,80,65,57,56,50,48,72,60,42,29.89,29.83,5,0,8,0.00
2013-4-17,67,64,63,55,53,52,71,67,65,30.15,30.11,1,0,13,0.01
2013-4-18,79,66,60,63,56,53,87,71,51,30.14,29.88,2,0,10,0.00
2013-4-19,75,65,52,64,56,37,89,72,56,29.88,29.50,8,2,11,0.22
2013-4-20,59,50,42,37,28,22,57,43,27,30.30,29.73,7,3,13,0.00
2013-4-21,58,44,34,30,24,19,62,46,25,30.54,30.30,3,0,7,0.00
2013-4-22,62,47,36,39,32,27,79,57,35,30.51,30.33,2,0,7,0.00
2013-4-23,62,48,36,44,37,30,83,67,49,30.34,30.03,2,0,5,0.00
2013-4-24,78,59,42,58,48,38,89,69,40,30.04,29.67,8,1,12,6.18
2013-4-25,65,52,42,41,31,27,63,47,25,30.25,29.98,7,2,13,0.00
2013-4-26,67,52,39,41,34,28,79,51,29,30.41,30.24,2,0,6,0.00
2013-4-27,75,56,38,47,38,32,81,52,26,30.34,30.19,1,0,5,0.00
2013-4-28,60,55,52,49,42,34,85,62,41,30.19,30.06,2,0,8,29.77
2013-4-29,61,56,53,56,51,46,92,85,71,30.06,29.96,1,0,6,0.00
2013-4-30,60,57,54,55,52,50,92,86,79,30.22,30.03,1,0,5,0.00
2013-5-1,74,60,51,52,42,33,89,54,23,30.35,30.22,2,0,7,0.00
2013-5-2,74,57,41,51,43,37,91,62,33,30.36,30.25,2,0,5,0.00
2013-5-3,73,56,44,48,43,39,88,64,34,30.32,30.20,2,0,6,0.00
2013-5-4,72,56,43,48,41,37,85,61,34,30.26,30.10,2,0,8,0.00
2013-5-5,68,53,42,46,40,36,85,61,37,30.18,30.06,2,0,8,0.00
2013-5-6,62,54,47,56,48,40,90,80,72,30.11,29.99,2,0,8,22.95
2013-5-7,62,59,58,60,57,55,92,90,87,29.99,29.86,2,1,11,0.00
2013-5-8,68,59,52,58,53,49,93,82,63,29.93,29.86,2,0,5,0.01
2013-5-9,76,60,49,58,52,46,93,76,46,29.94,29.84,3,0,9,0.00
2013-5-10,86,65,51,63,56,48,93,75,36,29.95,29.78,5,0,10,0.24
2013-5-11,76,65,60,64,59,50,93,81,57,29.80,29.65,3,0,8,0.45
2013-5-12,61,56,43,51,36,24,74,50,27,29.98,29.69,7,2,13,0.00
2013-5-13,59,49,41,34,28,21,69,47,26,30.11,29.97,6,1,17,0.00
2013-5-14,66,50,33,39,34,29,90,58,27,30.17,29.95,2,0,6,0.00
2013-5-15,87,68,50,64,49,36,74,53,32,29.95,29.60,3,0,8,0.00
2013-5-16,77,73,66,62,56,49,81,57,40,29.87,29.67,5,1,9,0.00
2013-5-17,84,70,55,62,55,46,90,61,37,30.05,29.87,2,0,6,0.00
2013-5-18,69,64,59,58,54,46,86,72,44,30.15,30.03,1,0,6,0.00
2013-5-19,74,64,58,64,59,55,92,83,69,30.14,30.01,1,0,6,0.00
2013-5-20,85,73,62,69,64,59,92,75,51,30.03,29.89,1,0,6,0.00
2013-5-21,91,76,63,70,65,60,91,72,45,29.92,29.77,1,0,8,0.00
2013-5-22,73,71,69,67,66,65,88,84,80,29.80,29.77,0,0,0,0.00
2013-5-28,82,66,54,66,57,50,91,74,53,30.12,29.97,1,0,6,0.03
2013-5-29,90,75,62,66,62,57,91,67,34,30.04,29.98,4,1,11,0.00
2013-5-30,93,78,65,68,64,60,86,65,38,30.12,30.01,1,0,5,0.00
2013-5-31,92,77,63,65,62,55,88,62,31,30.07,29.93,2,0,7,0.00
2013-6-1,92,79,66,69,64,61,85,62,42,29.96,29.80,2,0,6,0.00
2013-6-2,84,74,68,71,65,60,90,75,56,29.80,29.75,2,0,6,0.15
2013-6-3,80,71,63,66,62,52,93,75,53,29.90,29.77,4,0,10,0.00
2013-6-4,77,64,54,54,47,41,81,56,33,30.07,29.91,3,0,6,0.00
2013-6-5,80,67,54,58,54,50,90,66,41,30.10,29.95,1,0,8,0.00
2013-6-6,68,65,63,63,57,47,92,77,55,29.97,29.79,1,0,5,0.23
2013-6-7,68,65,64,66,63,61,93,92,88,29.78,29.57,1,0,6,0.08
2013-6-8,81,70,62,63,59,56,89,70,49,30.02,29.67,2,0,6,0.00
2013-6-9,81,70,61,67,61,57,89,73,55,30.12,30.01,1,0,5,0.00
2013-6-10,81,71,67,72,67,64,93,88,69,30.01,29.70,2,0,17,0.22
2013-6-11,80,72,64,65,63,61,93,74,57,29.78,29.71,5,1,14,0.00
2013-6-12,89,77,65,68,64,60,88,68,44,29.80,29.71,3,0,8,0.00
2013-6-13,84,72,67,69,64,52,92,77,55,29.71,29.42,9,2,14,0.00
2013-6-14,79,69,62,57,53,49,72,57,35,29.92,29.57,4,1,10,0.00
2013-6-15,82,70,57,60,54,47,85,60,30,30.02,29.92,3,0,12,0.00
2013-6-16,80,71,62,65,60,56,83,68,54,29.95,29.81,4,1,9,0.01
2013-6-17,86,76,65,68,64,60,87,67,47,29.89,29.79,3,0,7,0.00
2013-6-18,74,71,66,68,65,62,89,83,73,29.84,29.72,2,0,5,0.04
2013-6-19,80,69,62,63,60,56,92,74,44,30.07,29.82,1,0,5,0.06
2013-6-20,82,70,60,65,60,54,93,73,50,30.18,30.07,1,0,7,0.02
2013-6-21,85,73,60,64,56,49,82,56,40,30.21,30.14,1,0,3,0.00
2013-6-22,90,75,62,68,63,55,91,67,42,30.17,30.04,1,0,5,0.00
2013-6-23,89,77,67,71,66,63,90,71,48,30.11,29.99,2,0,5,0.00
2013-6-24,93,76,67,71,67,62,91,75,37,30.06,29.95,9,0,10,0.31
2013-6-25,92,78,66,72,67,59,90,71,46,29.96,29.81,3,1,9,0.11
2013-6-26,90,75,65,73,66,62,92,76,45,29.86,29.75,3,0,10,0.00
2013-6-27,82,75,68,71,67,64,92,78,63,29.75,29.54,4,0,12,0.00
2013-6-28,89,76,68,70,64,59,87,69,48,29.55,29.41,5,1,12,0.00
2013-6-29,88,75,66,67,62,57,92,67,38,29.64,29.45,5,0,17,0.13
2013-6-30,89,75,66,73,68,64,93,80,53,29.76,29.62,2,0,5,0.00
2013-7-1,85,77,72,70,68,66,87,75,59,29.88,29.74,2,0,7,0.00
2013-7-2,84,77,73,71,69,67,86,77,61,30.06,29.88,2,0,7,0.01
2013-7-3,86,77,73,72,69,67,88,79,62,30.14,30.05,1,0,6,0.01
2013-7-4,90,80,72,76,70,68,88,72,55,30.16,30.07,2,0,6,0.00
2013-7-5,91,81,71,74,70,67,89,71,48,30.13,30.03,3,0,7,0.00
2013-7-6,94,81,71,74,69,66,88,69,48,30.11,29.97,1,0,6,0.00
2013-7-7,93,76,69,74,68,65,93,78,51,30.02,29.91,7,0,11,0.47
2013-7-8,87,75,67,70,67,63,94,77,47,30.05,29.96,3,0,8,0.06
2013-7-9,86,76,69,72,69,66,91,80,56,30.04,29.91,1,0,6,0.05
2013-7-10,87,77,72,74,70,66,89,79,58,29.93,29.77,5,0,11,0.10
2013-7-11,85,77,71,69,66,63,87,71,50,29.86,29.77,2,0,6,0.00
2013-7-12,75,70,65,66,64,61,93,82,66,29.99,29.83,2,0,6,0.19
2013-7-13,86,75,68,70,67,64,92,78,56,30.18,29.98,1,0,4,0.02
2013-7-14,90,80,71,74,70,68,91,74,50,30.26,30.18,2,0,6,0.02
2013-7-15,95,81,69,74,69,66,92,71,42,30.24,30.12,2,0,7,0.01
2013-7-16,95,82,72,76,70,66,91,70,40,30.19,30.10,1,0,6,0.00
2013-7-17,97,83,72,74,70,66,90,68,37,30.16,30.01,2,0,6,0.00
2013-7-18,97,84,73,76,73,70,91,72,46,30.05,29.92,1,0,3,0.00
2013-7-19,96,82,73,79,72,67,90,74,48,29.93,29.79,4,0,7,0.00
2013-7-20,93,80,71,73,69,66,88,70,44,29.82,29.71,5,1,10,0.00
2013-7-21,88,76,70,73,69,65,90,79,58,29.87,29.80,2,0,6,0.10
2013-7-22,90,76,68,74,69,66,93,83,54,29.86,29.68,3,0,8,0.46
2013-7-23,85,76,70,71,68,64,94,78,50,29.70,29.59,4,1,10,0.00
2013-7-24,83,74,66,66,61,55,82,66,45,29.86,29.62,2,0,8,0.01
2013-7-25,80,68,57,59,54,50,82,65,40,29.98,29.86,2,0,6,0.00
2013-7-26,86,69,56,62,57,53,92,69,37,30.05,29.95,1,0,3,0.00
2013-7-27,82,72,62,70,64,58,90,78,62,29.96,29.83,2,0,7,0.00
2013-7-28,87,74,65,69,65,61,89,76,51,29.92,29.79,2,0,5,0.00
2013-7-29,82,69,57,61,56,50,90,65,34,30.10,29.92,2,0,8,0.00
2013-7-30,83,70,56,62,58,52,89,68,41,30.17,30.07,1,0,6,0.00
2013-7-31,80,69,61,68,63,58,91,81,59,30.08,29.92,4,0,10,0.01
2013-8-1,84,73,67,70,66,64,93,80,59,29.92,29.73,1,0,5,0.06
2013-8-2,87,73,63,66,61,55,92,68,36,29.90,29.80,3,0,10,0.00
2013-8-3,74,68,64,68,63,58,93,84,71,29.91,29.86,3,0,6,0.16
2013-8-4,81,68,58,63,57,50,94,71,37,29.98,29.87,3,0,11,0.00
2013-8-5,82,67,54,58,54,49,90,66,33,30.05,29.94,1,0,3,0.00
2013-8-6,80,69,64,67,62,57,93,79,60,29.99,29.92,1,0,3,0.10
2013-8-7,86,74,68,72,68,64,92,81,58,29.98,29.89,0,0,5,0.65
2013-8-8,81,74,68,75,70,66,94,88,71,29.94,29.88,1,0,3,0.14
2013-8-9,85,77,72,74,71,68,93,82,61,29.90,29.79,7,1,14,0.12
2013-8-10,85,75,69,69,65,57,90,73,42,30.01,29.88,1,0,3,0.01
2013-8-11,90,75,67,70,66,64,91,74,45,30.04,29.92,1,0,5,0.00
2013-8-12,90,76,66,69,66,63,92,73,44,29.95,29.83,1,0,7,0.00
2013-8-13,86,75,67,70,66,56,92,75,51,29.82,29.66,2,0,6,0.41
2013-8-14,74,65,54,57,50,47,81,59,43,30.05,29.78,4,1,10,0.00
2013-8-15,79,63,50,54,49,43,92,66,32,30.14,30.04,1,0,5,0.00
2013-8-16,83,64,50,58,52,48,91,69,35,30.12,30.06,1,0,3,0.00
2013-8-17,82,67,53,60,55,50,92,69,42,30.20,30.12,1,0,5,0.00
2013-8-18,70,65,61,61,59,55,90,81,61,30.19,30.11,1,0,6,0.18
2013-8-19,79,67,59,67,62,56,93,83,65,30.12,29.99,0,0,2,0.01
2013-8-20,87,72,62,68,63,60,93,76,41,30.12,30.02,1,0,3,0.00
2013-8-21,91,74,63,72,66,60,91,76,47,30.13,29.99,2,0,4,0.03
2013-8-22,87,76,67,68,65,63,91,71,49,30.01,29.85,2,0,7,0.00
2013-8-23,72,68,62,67,64,59,91,86,76,30.07,29.88,1,0,2,0.43
2013-8-24,84,68,58,62,58,55,93,75,42,30.26,30.07,1,0,4,0.01
2013-8-25,86,68,56,63,58,53,92,72,39,30.35,30.19,1,0,5,0.00
2013-8-26,88,72,60,65,61,56,90,69,40,30.20,29.93,2,0,8,0.00
2013-8-27,88,77,68,72,66,61,82,70,54,29.93,29.81,3,0,7,0.00
2013-8-28,75,73,70,72,69,66,92,88,75,29.85,29.74,2,0,5,0.63
2013-8-29,86,75,69,71,68,65,92,79,53,29.94,29.78,1,0,6,0.01
2013-8-30,92,75,64,70,66,62,93,76,47,29.96,29.79,2,0,5,0.00
2013-8-31,90,78,69,72,68,65,89,73,49,29.79,29.70,2,0,5,0.00
2013-9-1,93,77,67,73,67,64,91,74,44,29.77,29.68,1,0,4,0.00
2013-9-2,91,78,69,70,68,64,91,72,42,29.73,29.63,2,0,6,0.00
2013-9-3,83,74,64,69,59,52,84,63,35,29.91,29.66,3,0,19,0.00
2013-9-4,86,68,55,57,53,47,89,63,27,30.03,29.92,2,0,9,0.00
2013-9-5,83,68,56,61,55,48,91,66,40,30.07,29.95,2,0,7,0.00
2013-9-6,78,62,51,51,47,42,85,62,29,30.21,30.07,1,0,3,0.00
2013-9-7,87,64,48,59,50,43,90,65,26,30.08,29.87,1,0,5,0.00
2013-9-8,88,72,60,66,60,55,86,69,46,29.98,29.81,1,0,7,0.00
2013-9-9,80,68,60,63,56,46,80,65,49,30.14,29.98,0,0,2,0.00
2013-9-10,95,78,65,71,66,61,89,70,42,30.09,29.99,2,0,6,0.00
2013-9-11,97,81,70,73,69,66,91,70,41,30.08,29.92,1,0,5,0.00
2013-9-12,93,78,69,70,65,59,92,67,37,29.92,29.65,3,0,10,0.00
2013-9-13,76,68,57,63,54,45,80,63,36,29.89,29.64,3,1,12,0.00
2013-9-14,69,56,44,45,43,40,88,63,37,30.10,29.90,2,0,7,0.00
2013-9-15,81,61,44,55,49,42,92,69,36,30.17,30.00,1,0,8,0.00
2013-9-16,73,63,55,58,54,51,91,76,49,30.17,29.95,1,0,6,0.13
2013-9-17,72,57,46,51,43,36,87,63,29,30.38,30.18,1,0,5,0.00
2013-9-18,76,55,39,50,43,36,91,67,32,30.28,30.11,1,0,2,0.00
2013-9-19,82,62,47,58,51,43,90,70,40,30.12,29.99,0,0,2,0.00
2013-9-20,84,67,53,62,57,50,92,73,44,30.01,29.86,0,0,3,0.00
2013-9-21,69,65,60,63,60,58,93,85,77,29.86,29.61,2,0,6,0.74
2013-9-22,72,60,52,57,51,46,94,75,44,29.91,29.67,2,0,7,0.02
2013-9-23,67,56,46,46,44,40,84,64,41,30.05,29.90,1,0,7,0.00
2013-9-24,76,55,40,50,44,37,93,71,35,30.08,29.89,1,0,3,0.00
2013-9-25,77,57,43,50,45,40,93,69,28,29.95,29.82,0,0,2,0.00
2013-9-26,79,59,46,53,48,42,92,71,32,30.01,29.87,0,0,3,0.00
2013-9-27,77,59,47,57,51,44,91,76,46,30.17,30.01,0,0,1,0.00
2013-9-28,68,59,50,55,51,46,91,77,53,30.25,30.16,0,0,5,0.00
2013-9-29,77,59,45,55,48,43,93,71,33,30.16,30.00,0,0,3,0.00
2013-9-30,80,61,47,56,50,44,92,70,34,30.03,29.91,0,0,3,0.00
2013-10-1,82,66,53,59,54,50,93,69,38,30.02,29.91,3,0,7,0.00
2013-10-2,87,68,54,60,55,51,92,68,35,30.03,29.93,3,0,10,0.00
2013-10-3,86,69,57,64,59,54,91,73,42,30.07,29.95,0,0,5,0.00
2013-10-4,90,71,60,65,60,56,92,72,37,30.03,29.93,1,0,6,0.00
2013-10-5,89,73,63,66,62,60,91,71,39,30.03,29.91,1,0,5,0.00
2013-10-6,91,74,60,65,61,57,91,66,34,29.94,29.81,1,0,7,0.00
2013-10-7,73,64,50,66,56,42,92,77,54,30.01,29.66,5,0,11,0.55
2013-10-8,70,55,43,48,44,40,91,68,40,30.24,30.01,1,0,5,0.00
2013-10-9,63,53,45,48,45,40,90,74,44,30.29,30.19,1,0,5,0.06
2013-10-10,55,53,51,53,49,46,93,88,79,30.19,29.99,1,0,5,2.62
2013-10-11,60,56,53,58,54,51,94,94,93,29.98,29.92,1,0,3,1.01
2013-10-12,64,60,57,62,58,55,94,93,87,30.12,29.94,1,0,6,0.53
2013-10-13,58,57,56,56,56,55,94,94,93,30.26,30.12,0,0,3,0.18
2013-10-14,70,58,52,56,53,50,94,84,57,30.28,30.17,1,0,3,0.22
2013-10-15,73,58,50,57,51,48,94,81,49,30.19,30.02,1,0,3,0.24
2013-10-16,72,61,52,59,55,49,93,81,60,30.01,29.83,1,0,4,0.04
2013-10-17,79,64,58,64,58,47,93,80,52,29.83,29.63,3,0,14,0.13
2013-10-18,68,56,45,47,42,38,85,60,36,29.95,29.80,3,1,7,0.01
2013-10-19,63,51,41,54,45,38,92,81,62,29.94,29.70,3,0,7,0.01
2013-10-20,64,50,37,40,35,31,86,59,32,30.03,29.83,3,1,12,0.01
2013-10-21,72,51,36,44,38,33,91,67,33,30.08,29.86,1,0,7,0.00
2013-10-22,61,51,40,48,40,32,87,68,37,29.86,29.77,3,0,7,0.00
2013-10-23,49,43,37,39,35,31,87,74,56,29.86,29.65,2,0,7,0.00
2013-10-24,49,41,35,33,30,25,85,67,41,30.09,29.86,4,1,11,0.00
2013-10-25,52,40,30,33,28,25,83,64,42,30.27,30.08,4,1,12,0.00
2013-10-26,58,42,28,31,26,22,85,59,27,30.26,29.87,5,0,13,0.00
2013-10-27,60,48,36,35,31,28,79,54,33,30.09,29.89,4,1,11,0.00
2013-10-28,65,44,31,40,33,27,89,69,35,30.23,30.08,1,0,3,0.00
2013-10-29,66,47,34,41,36,30,92,71,38,30.35,30.22,0,0,2,0.00
2013-10-30,71,56,46,52,47,39,90,73,49,30.25,30.07,0,0,2,0.01
2013-10-31,68,62,57,58,55,52,90,79,65,30.09,29.65,1,0,11,0.02
2013-11-1,75,64,48,60,51,42,92,68,30,29.63,29.44,6,1,11,0.31
2013-11-2,62,51,43,47,41,35,91,69,40,29.83,29.59,5,1,13,0.00
2013-11-3,56,47,37,38,30,18,78,55,24,30.40,29.83,5,1,8,0.00
2013-11-4,46,36,26,27,23,20,79,60,38,30.59,30.40,1,0,4,0.00
2013-11-5,54,43,31,43,33,23,82,68,53,30.57,30.38,0,0,2,0.00
2013-11-6,72,58,46,51,46,40,87,67,44,30.38,29.94,2,0,6,0.00
2013-11-7,59,53,40,53,42,21,91,67,42,30.04,29.81,7,1,12,0.18
2013-11-8,50,41,30,28,24,21,75,52,32,30.26,30.03,8,2,18,0.00
2013-11-9,59,40,27,30,26,22,84,59,29,30.29,29.96,1,0,7,0.00
2013-11-10,59,46,37,35,28,24,68,50,30,30.19,29.92,7,2,16,0.00
2013-11-11,61,45,32,31,27,24,76,52,27,30.24,29.93,2,0,6,0.00
2013-11-12,51,38,26,37,21,12,72,52,35,30.37,29.92,8,2,12,0.00
2013-11-13,44,33,25,20,17,13,71,53,32,30.45,30.32,4,1,8,0.00
2013-11-14,61,37,23,23,17,13,69,48,17,30.32,30.15,2,0,6,0.00
2013-11-15,63,43,25,36,23,18,78,50,19,30.23,30.11,1,0,2,0.00
2013-11-16,62,50,41,49,43,35,89,79,58,30.24,30.13,1,0,5,0.00
2013-11-17,62,57,50,56,52,46,90,83,71,30.14,29.60,2,0,8,0.00
2013-11-18,66,57,47,57,34,22,87,44,22,29.89,29.59,8,3,19,0.10
2013-11-19,47,41,31,26,24,22,70,52,37,30.33,29.89,7,3,12,0.00
2013-11-20,50,35,24,24,20,15,84,59,30,30.52,30.33,2,0,7,0.00
2013-11-21,52,38,28,37,30,22,84,74,55,30.52,30.30,0,0,2,0.00
2013-11-22,62,51,41,50,44,36,86,76,61,30.30,29.96,5,0,7,0.00
2013-11-23,52,40,28,42,24,7,70,54,37,30.19,30.00,6,2,14,0.00
2013-11-24,28,24,22,7,2,0,44,38,33,30.28,30.19,8,4,12,0.00
2013-12-11,42,26,16,25,14,10,80,63,36,30.35,30.19,1,0,9,0.20
2013-12-12,33,25,16,20,8,1,76,50,28,30.40,30.19,5,1,9,0.02
2013-12-13,46,25,12,21,12,3,74,59,29,30.25,30.16,1,0,5,0.06
2013-12-14,36,31,27,31,27,19,92,83,69,30.27,29.69,1,0,5,0.17
2013-12-15,40,33,29,35,26,19,93,76,57,29.89,29.60,6,2,16,0.01
2013-12-16,35,31,28,24,21,18,75,67,58,30.13,29.89,5,1,11,0.00
2013-12-17,41,33,28,31,27,23,85,77,68,30.08,29.87,1,0,3,0.00
2013-12-18,40,31,22,24,20,16,88,64,47,30.16,29.95,5,1,8,0.00
2013-12-19,65,36,21,32,23,16,83,63,26,30.14,29.99,0,0,2,0.00
2013-12-20,58,44,36,36,30,27,72,59,40,30.02,29.90,0,0,3,0.00
2013-12-21,72,55,42,56,44,32,79,67,45,29.93,29.77,1,0,3,0.00
2013-12-22,67,62,56,61,56,52,92,81,64,29.91,29.68,3,0,8,0.25
2013-12-23,57,50,34,55,44,22,93,80,59,30.20,29.83,7,1,14,0.41
2013-12-24,38,29,20,25,16,4,77,57,39,30.44,30.16,7,2,17,0.00
2013-12-25,36,24,17,13,9,6,69,54,35,30.53,30.29,2,0,5,0.00
2013-12-26,44,32,24,23,16,11,64,52,33,30.30,30.16,6,1,13,0.00
2013-12-27,53,34,23,22,17,12,72,51,21,30.36,30.24,4,0,9,0.00
2013-12-28,62,39,26,27,22,18,72,53,25,30.26,30.03,2,0,6,0.00
2013-12-29,46,42,40,44,36,24,93,80,50,30.03,29.51,5,0,11,0.87
2013-12-30,45,38,28,37,28,18,77,66,58,30.13,29.75,5,1,11,0.00
2013-12-31,42,30,24,26,18,14,80,61,41,30.26,30.05,9,1,14,0.00
2014-1-1,50,33,23,26,21,15,77,63,35,30.34,30.05,1,0,5,0.00
2014-1-2,34,30,25,28,24,20,89,81,70,30.05,29.60,1,0,3,0.00